When you browse on this site, cookies collect data to enhance your experience and personalize the content and advertising you see.
Visit our Privacy Policy to learn more. By continuing to use the site, you agree to this use of cookies and data.
  • In Austria
  • List of Countries
  • For 7 days
  • Water Temperature
  • Satellite Maps
  • Weather Map
  • News
  • Weather Widgets
  • user-avatar
    Login

    Hourly Weather Simanovo

    Today, 18 February, Monday

    Time Temperature Precipitation Wind Pressure Humidity
    00:00 -7°C° 0 mm 7 mps 737 mmHg 75%
    01:00 -7°C° 0 mm 7 mps 738 mmHg 75%
    02:00 -8°C° 0 mm 7 mps 739 mmHg 76%
    03:00 -8°C° 0 mm 7 mps 740 mmHg 76%
    04:00 -9°C° 0 mm 7 mps 740 mmHg 77%
    05:00 -9°C° 0 mm 6 mps 741 mmHg 77%
    06:00 -10°C° 0 mm 6 mps 742 mmHg 78%
    07:00 -10°C° 0 mm 6 mps 743 mmHg 79%
    08:00 -11°C° 0 mm 5 mps 744 mmHg 80%
    09:00 -11°C° 0 mm 5 mps 745 mmHg 79%
    10:00 -10°C° 0 mm 5 mps 745 mmHg 79%
    11:00 -10°C° 0 mm 5 mps 746 mmHg 78%
    12:00 -10°C° 0 mm 5 mps 746 mmHg 78%
    13:00 -9°C° 0 mm 4 mps 747 mmHg 78%
    14:00 -9°C° 0 mm 4 mps 747 mmHg 77%
    15:00 -9°C° 0 mm 3 mps 747 mmHg 81%
    16:00 -10°C° 0 mm 3 mps 748 mmHg 84%
    17:00 -10°C° 0 mm 2 mps 748 mmHg 87%
    18:00 -10°C° 0 mm 2 mps 748 mmHg 89%
    19:00 -10°C° 0 mm 1 mps 748 mmHg 90%
    20:00 -10°C° 0 mm 1 mps 748 mmHg 91%
    21:00 -10°C° 0 mm 1 mps 748 mmHg 90%
    22:00 -12°C° 0 mm 2 mps 748 mmHg 88%
    23:00 -12°C° 0 mm 2 mps 748 mmHg 86%

    Tomorrow, 19 February, Tuesday

    Time Temperature Precipitation Wind Pressure Humidity
    00:00 -13°C° 0 mm 3 mps 747 mmHg 84%
    01:00 -14°C° 0 mm 4 mps 746 mmHg 82%
    02:00 -12°C° 0 mm 4 mps 746 mmHg 80%
    03:00 -12°C° 0 mm 5 mps 745 mmHg 79%
    04:00 -11°C° 0 mm 5 mps 744 mmHg 78%
    05:00 -10°C° 0 mm 6 mps 743 mmHg 77%
    06:00 -10°C° 0 mm 6 mps 742 mmHg 78%
    07:00 -10°C° 0 mm 5 mps 742 mmHg 80%
    08:00 -10°C° 0 mm 5 mps 741 mmHg 81%
    09:00 -7°C° 0 mm 5 mps 741 mmHg 82%
    10:00 -6°C° 0 mm 6 mps 740 mmHg 83%
    11:00 -5°C° 0 mm 6 mps 740 mmHg 83%
    12:00 -4°C° 0 mm 6 mps 739 mmHg 83%
    13:00 -3°C° 0 mm 6 mps 739 mmHg 84%
    14:00 -2°C° 0 mm 6 mps 739 mmHg 84%
    15:00 -3°C° 0 mm 6 mps 738 mmHg 86%
    16:00 -2°C° 0 mm 5 mps 738 mmHg 87%
    17:00 -2°C° 0 mm 5 mps 738 mmHg 89%
    18:00 -2°C° 0 mm 5 mps 737 mmHg 89%
    19:00 -4°C° 0 mm 5 mps 737 mmHg 90%
    20:00 -4°C° 0 mm 5 mps 736 mmHg 90%
    21:00 -4°C° 0 mm 5 mps 736 mmHg 90%
    22:00 -4°C° 0 mm 5 mps 735 mmHg 90%
    23:00 -4°C° 0 mm 5 mps 734 mmHg 89%

    Day after tomorrow, 20 February, Wednesday

    Time Temperature Precipitation Wind Pressure Humidity
    00:00 -4°C° 0 mm 5 mps 734 mmHg 89%
    01:00 -4°C° 0 mm 5 mps 733 mmHg 89%
    02:00 -2°C° 0 mm 5 mps 732 mmHg 89%
    03:00 -2°C° 0.1 mm 5 mps 732 mmHg 89%
    04:00 -2°C° 0.1 mm 5 mps 731 mmHg 89%
    05:00 -2°C° 0.1 mm 5 mps 730 mmHg 89%
    06:00 -2°C° 0.2 mm 6 mps 729 mmHg 90%
    07:00 -2°C° 0.2 mm 6 mps 729 mmHg 90%
    08:00 -2°C° 0.2 mm 6 mps 729 mmHg 91%
    09:00 -2°C° 0.1 mm 6 mps 729 mmHg 91%
    10:00 -1°C° 0.1 mm 6 mps 729 mmHg 91%
    11:00 0°C° 0.1 mm 5 mps 729 mmHg 91%
    12:00 0°C° 0.1 mm 5 mps 729 mmHg 91%
    13:00 0°C° 0.1 mm 5 mps 729 mmHg 91%
    14:00 0°C° 0.1 mm 5 mps 729 mmHg 90%
    15:00 0°C° 0.2 mm 5 mps 729 mmHg 90%
    16:00 -1°C° 0.2 mm 5 mps 728 mmHg 89%
    17:00 -1°C° 0.2 mm 5 mps 728 mmHg 88%
    18:00 -1°C° 0.2 mm 5 mps 728 mmHg 89%
    19:00 -1°C° 0.2 mm 4 mps 728 mmHg 89%
    20:00 -1°C° 0.2 mm 4 mps 728 mmHg 90%
    21:00 -1°C° 0.2 mm 4 mps 728 mmHg 90%
    22:00 -1°C° 0.2 mm 4 mps 728 mmHg 91%
    23:00 -1°C° 0.2 mm 4 mps 727 mmHg 91%

    21 February, Thursday

    Time Temperature Precipitation Wind Pressure Humidity
    00:00 -2°C° 0.1 mm 4 mps 727 mmHg 90%
    01:00 -3°C° 0.1 mm 4 mps 727 mmHg 89%
    02:00 -4°C° 0.1 mm 3 mps 727 mmHg 88%
    03:00 -5°C° 0 mm 3 mps 727 mmHg 90%
    04:00 -7°C° 0 mm 3 mps 727 mmHg 92%
    05:00 -8°C° 0 mm 3 mps 727 mmHg 94%
    06:00 -7°C° 0 mm 2 mps 727 mmHg 94%
    07:00 -7°C° 0 mm 2 mps 728 mmHg 94%
    08:00 -7°C° 0 mm 2 mps 728 mmHg 94%
    09:00 -6°C° 0 mm 2 mps 729 mmHg 93%
    10:00 -4°C° 0 mm 2 mps 729 mmHg 92%
    11:00 -4°C° 0 mm 3 mps 730 mmHg 91%
    12:00 -5°C° 0.2 mm 4 mps 731 mmHg 89%
    13:00 -6°C° 0.2 mm 5 mps 732 mmHg 88%
    14:00 -8°C° 0.2 mm 7 mps 732 mmHg 87%
    15:00 -9°C° 0.1 mm 7 mps 734 mmHg 86%
    16:00 -11°C° 0.1 mm 7 mps 735 mmHg 84%
    17:00 -12°C° 0.1 mm 7 mps 736 mmHg 83%
    18:00 -12°C° 0.1 mm 7 mps 737 mmHg 82%
    19:00 -13°C° 0.1 mm 7 mps 738 mmHg 81%
    20:00 -13°C° 0.1 mm 7 mps 739 mmHg 80%
    21:00 -14°C° 0.1 mm 7 mps 740 mmHg 79%
    22:00 -14°C° 0.1 mm 7 mps 741 mmHg 78%
    23:00 -15°C° 0.1 mm 7 mps 742 mmHg 77%

    22 February, Friday

    Time Temperature Precipitation Wind Pressure Humidity
    00:00 -15°C° 0 mm 7 mps 743 mmHg 76%
    01:00 -17°C° 0 mm 7 mps 744 mmHg 76%
    02:00 -18°C° 0 mm 7 mps 744 mmHg 76%
    03:00 -18°C° 0 mm 7 mps 745 mmHg 74%
    04:00 -18°C° 0 mm 7 mps 746 mmHg 73%
    05:00 -17°C° 0 mm 6 mps 746 mmHg 72%
    06:00 -18°C° 0 mm 7 mps 747 mmHg 73%
    07:00 -18°C° 0 mm 7 mps 748 mmHg 73%
    08:00 -18°C° 0 mm 7 mps 749 mmHg 73%
    09:00 -17°C° 0 mm 7 mps 749 mmHg 73%
    10:00 -15°C° 0 mm 7 mps 750 mmHg 72%
    11:00 -14°C° 0 mm 7 mps 750 mmHg 71%
    12:00 -14°C° 0 mm 7 mps 751 mmHg 71%
    13:00 -14°C° 0 mm 7 mps 751 mmHg 72%
    14:00 -13°C° 0 mm 7 mps 751 mmHg 72%
    15:00 -14°C° 0 mm 7 mps 752 mmHg 74%
    16:00 -14°C° 0 mm 6 mps 753 mmHg 77%
    17:00 -14°C° 0 mm 6 mps 754 mmHg 79%
    18:00 -14°C° 0 mm 6 mps 754 mmHg 81%
    19:00 -13°C° 0 mm 5 mps 755 mmHg 83%
    20:00 -13°C° 0 mm 5 mps 756 mmHg 85%
    21:00 -14°C° 0 mm 5 mps 756 mmHg 86%
    22:00 -15°C° 0 mm 4 mps 756 mmHg 86%
    23:00 -15°C° 0 mm 3 mps 756 mmHg 87%

    23 February, Saturday

    Time Temperature Precipitation Wind Pressure Humidity
    00:00 -15°C° 0 mm 3 mps 756 mmHg 86%
    01:00 -15°C° 0 mm 3 mps 756 mmHg 86%
    02:00 -15°C° 0 mm 2 mps 756 mmHg 86%
    03:00 -15°C° 0 mm 2 mps 756 mmHg 83%
    04:00 -16°C° 0 mm 3 mps 756 mmHg 81%
    05:00 -15°C° 0 mm 3 mps 755 mmHg 79%
    06:00 -15°C° 0 mm 3 mps 755 mmHg 78%
    07:00 -14°C° 0 mm 3 mps 754 mmHg 77%
    08:00 -13°C° 0 mm 3 mps 754 mmHg 76%
    09:00 -12°C° 0.1 mm 4 mps 753 mmHg 80%
    10:00 -11°C° 0.1 mm 4 mps 753 mmHg 83%
    11:00 -11°C° 0.1 mm 5 mps 752 mmHg 86%
    12:00 -11°C° 0.4 mm 5 mps 752 mmHg 88%
    13:00 -10°C° 0.4 mm 5 mps 751 mmHg 89%
    14:00 -9°C° 0.4 mm 4 mps 751 mmHg 90%
    15:00 -9°C° 0.1 mm 4 mps 750 mmHg 91%
    16:00 -8°C° 0.1 mm 3 mps 750 mmHg 91%
    17:00 -8°C° 0.1 mm 3 mps 750 mmHg 92%
    18:00 -8°C° 0 mm 3 mps 750 mmHg 92%
    19:00 -8°C° 0 mm 3 mps 750 mmHg 93%
    20:00 -8°C° 0 mm 3 mps 749 mmHg 94%
    21:00 -8°C° 0 mm 3 mps 749 mmHg 94%
    22:00 -8°C° 0 mm 3 mps 749 mmHg 95%
    23:00 -6°C° 0 mm 2 mps 749 mmHg 95%
    Show more